STARLINK-1504 (45746 NORAD) Tracking and Keplerian Element Data

This shows tracking and keplerian element data for the satellite.

Feedback or suggestion? Click here.




ElementValue
Catalog45746
NameSTARLINK-1504
Epoch Orbit942
Epoch Day219.16667824
Epoch Year2020
RAAN41.3706
Inclination52.9995
Eccentricity0.0001332
Argument of Perigee97.9975
Mean Anonmoly271.5986
Mean Motion15.05588949
Decay Rate-0.00037662
L11 45746U 20038S 20219.16667824 -.00037662 00000-0 -25788-2 0 9991
L22 45746 52.9995 41.3706 0001332 97.9975 271.5986 15.05588949 9420

Live tracking and technical data element details for STARLINK-1504 (NORAD 45746). STARLINK-1504 can be tracked NOW for your location showing map with azimuth and elevation plus other details from your city location.

Track the satellite on the map from your city or location and see movement details for azimuth, elevation, latitude, longitude, range, height, and movement on the map or in text.







IsCatalogInMostPopularTable: catalog: 45746, numindb: 8
Update: records affected: 1



GetName: 45746 STARLINK-1504

Hit Count: updated at: Fri, 07 Aug 2020 23:21:14 GMT